Time,TemperatureF,DewpointF,PressureIn,WindDirection,WindDirectionDegrees,WindSpeedMPH,WindSpeedGustMPH,Humidity,HourlyPrecipIn,Conditions,Clouds,dailyrainin,SoftwareType,DateUTC
2013-08-19 00:02:00,70.0,55.0,29.09,WSW,247,0.0,2.0,60,0.00,,,0.00,Rainwise IP-100,2013-08-19 07:02:00,
2013-08-19 00:07:00,69.9,55.0,29.09,WSW,247,0.0,2.0,60,0.00,,,0.00,Rainwise IP-100,2013-08-19 07:07:00,
2013-08-19 00:12:00,69.7,56.0,29.08,WSW,247,1.6,2.0,61,0.00,,,0.00,Rainwise IP-100,2013-08-19 07:12:00,
2013-08-19 00:17:00,69.7,56.0,29.09,WSW,247,1.2,3.0,61,0.00,,,0.00,Rainwise IP-100,2013-08-19 07:17:00,
2013-08-19 00:22:00,69.8,56.0,29.09,WSW,247,0.0,2.0,61,0.00,,,0.00,Rainwise IP-100,2013-08-19 07:22:00,
2013-08-19 00:27:00,69.9,56.0,29.09,WSW,247,0.0,1.0,61,0.00,,,0.00,Rainwise IP-100,2013-08-19 07:27:00,
2013-08-19 00:32:00,69.9,56.0,29.10,WSW,247,0.0,0.0,61,0.00,,,0.00,Rainwise IP-100,2013-08-19 07:32:00,
2013-08-19 00:37:00,69.6,56.0,29.10,WSW,247,1.4,2.0,61,0.00,,,0.00,Rainwise IP-100,2013-08-19 07:37:00,
2013-08-19 00:42:00,69.3,56.0,29.10,WSW,247,0.0,2.0,62,0.00,,,0.00,Rainwise IP-100,2013-08-19 07:42:00,
2013-08-19 00:47:00,69.6,56.0,29.10,WSW,247,0.0,0.0,62,0.00,,,0.00,Rainwise IP-100,2013-08-19 07:47:00,
2013-08-19 00:52:00,69.5,56.0,29.10,WSW,247,0.0,0.0,61,0.00,,,0.00,Rainwise IP-100,2013-08-19 07:52:00,
2013-08-19 00:57:00,69.0,54.0,29.10,WSW,247,0.0,0.0,61,0.00,,,0.00,Rainwise IP-100,2013-08-19 07:57:00,
2013-08-19 01:02:00,68.7,54.0,29.10,WSW,247,0.0,0.0,62,0.00,,,0.00,Rainwise IP-100,2013-08-19 08:02:00,
2013-08-19 01:07:00,68.5,55.0,29.10,WSW,247,1.6,1.6,63,0.00,,,0.00,Rainwise IP-100,2013-08-19 08:07:00,
2013-08-19 01:12:00,68.2,55.0,29.10,WSW,247,0.0,2.0,64,0.00,,,0.00,Rainwise IP-100,2013-08-19 08:12:00,
2013-08-19 01:17:00,68.3,56.0,29.10,WSW,247,0.0,1.0,65,0.00,,,0.00,Rainwise IP-100,2013-08-19 08:17:00,
2013-08-19 01:22:00,68.6,56.0,29.10,WSW,247,0.0,1.0,64,0.00,,,0.00,Rainwise IP-100,2013-08-19 08:22:00,
2013-08-19 01:27:00,68.7,55.0,29.10,WSW,247,1.4,2.0,63,0.00,,,0.00,Rainwise IP-100,2013-08-19 08:27:00,
2013-08-19 01:32:00,68.6,55.0,29.10,WSW,247,1.2,2.0,63,0.00,,,0.00,Rainwise IP-100,2013-08-19 08:32:00,
2013-08-19 01:37:00,68.5,56.0,29.10,WSW,247,0.0,3.0,64,0.00,,,0.00,Rainwise IP-100,2013-08-19 08:37:00,
2013-08-19 01:42:00,68.4,56.0,29.10,WSW,247,0.0,1.0,64,0.00,,,0.00,Rainwise IP-100,2013-08-19 08:42:00,
2013-08-19 01:47:00,68.3,55.0,29.10,WSW,247,2.3,2.3,64,0.00,,,0.00,Rainwise IP-100,2013-08-19 08:47:00,
2013-08-19 01:52:00,68.2,55.0,29.09,WSW,247,0.0,3.0,64,0.00,,,0.00,Rainwise IP-100,2013-08-19 08:52:00,
2013-08-19 01:57:00,68.1,55.0,29.09,WSW,247,0.0,0.0,64,0.00,,,0.00,Rainwise IP-100,2013-08-19 08:57:00,
2013-08-19 02:02:00,68.0,55.0,29.09,WSW,247,0.0,0.0,64,0.00,,,0.00,Rainwise IP-100,2013-08-19 09:02:00,
2013-08-19 02:07:00,68.1,56.0,29.08,WSW,247,0.0,0.0,65,0.00,,,0.00,Rainwise IP-100,2013-08-19 09:07:00,
2013-08-19 02:12:00,68.0,56.0,29.09,WSW,247,0.0,1.0,65,0.00,,,0.00,Rainwise IP-100,2013-08-19 09:12:00,
2013-08-19 02:17:00,67.6,56.0,29.09,WSW,247,0.0,0.0,66,0.00,,,0.00,Rainwise IP-100,2013-08-19 09:17:00,
2013-08-19 02:22:00,67.4,56.0,29.09,WSW,247,0.0,0.0,66,0.00,,,0.00,Rainwise IP-100,2013-08-19 09:22:00,
2013-08-19 02:27:00,66.9,55.0,29.09,WSW,247,0.0,0.0,66,0.00,,,0.00,Rainwise IP-100,2013-08-19 09:27:00,
2013-08-19 02:32:00,66.4,55.0,29.09,WSW,247,0.0,1.0,67,0.00,,,0.00,Rainwise IP-100,2013-08-19 09:32:00,
2013-08-19 02:37:00,66.3,55.0,29.09,WSW,247,2.1,2.1,68,0.00,,,0.00,Rainwise IP-100,2013-08-19 09:37:00,
2013-08-19 02:42:00,66.4,55.0,29.09,WSW,247,1.6,2.0,68,0.00,,,0.00,Rainwise IP-100,2013-08-19 09:42:00,
2013-08-19 02:47:00,66.4,55.0,29.09,WSW,247,0.0,1.0,68,0.00,,,0.00,Rainwise IP-100,2013-08-19 09:47:00,
2013-08-19 02:52:00,66.3,56.0,29.10,WSW,247,2.1,2.1,69,0.00,,,0.00,Rainwise IP-100,2013-08-19 09:52:00,
2013-08-19 02:57:00,66.3,56.0,29.10,WSW,247,0.0,2.0,69,0.00,,,0.00,Rainwise IP-100,2013-08-19 09:57:00,
2013-08-19 03:02:00,66.5,56.0,29.10,SSW,202,0.0,3.0,69,0.00,,,0.00,Rainwise IP-100,2013-08-19 10:02:00,
2013-08-19 03:07:00,66.6,56.0,29.10,ESE,112,0.0,1.0,68,0.00,,,0.00,Rainwise IP-100,2013-08-19 10:07:00,
2013-08-19 03:12:00,66.2,55.0,29.10,ESE,112,0.0,0.0,67,0.00,,,0.00,Rainwise IP-100,2013-08-19 10:12:00,
2013-08-19 03:17:00,65.9,55.0,29.10,ESE,112,0.0,0.0,68,0.00,,,0.00,Rainwise IP-100,2013-08-19 10:17:00,
2013-08-19 03:22:00,65.5,54.0,29.10,ESE,112,0.0,0.0,68,0.00,,,0.00,Rainwise IP-100,2013-08-19 10:22:00,
2013-08-19 03:27:00,65.3,54.0,29.10,NNE,22,3.5,3.5,69,0.00,,,0.00,Rainwise IP-100,2013-08-19 10:27:00,
2013-08-19 03:32:00,65.3,54.0,29.10,North,360,1.4,4.0,70,0.00,,,0.00,Rainwise IP-100,2013-08-19 10:32:00,
2013-08-19 03:37:00,65.6,54.0,29.10,North,360,0.0,2.0,69,0.00,,,0.00,Rainwise IP-100,2013-08-19 10:37:00,
2013-08-19 03:42:00,65.7,54.0,29.10,North,360,0.0,0.0,69,0.00,,,0.00,Rainwise IP-100,2013-08-19 10:42:00,
2013-08-19 03:47:00,65.6,54.0,29.10,North,360,0.0,0.0,69,0.00,,,0.00,Rainwise IP-100,2013-08-19 10:47:00,
2013-08-19 03:52:00,65.6,54.0,29.10,WSW,247,1.6,2.0,69,0.00,,,0.00,Rainwise IP-100,2013-08-19 10:52:00,
2013-08-19 03:57:00,65.7,54.0,29.10,WSW,247,1.4,1.4,69,0.00,,,0.00,Rainwise IP-100,2013-08-19 10:57:00,
2013-08-19 04:02:00,66.3,56.0,29.10,SSW,202,0.0,2.0,69,0.00,,,0.00,Rainwise IP-100,2013-08-19 11:02:00,
2013-08-19 04:07:00,66.8,56.0,29.09,ESE,112,0.0,1.0,68,0.00,,,0.00,Rainwise IP-100,2013-08-19 11:07:00,
2013-08-19 04:12:00,66.8,55.0,29.10,ESE,112,0.0,0.0,67,0.00,,,0.00,Rainwise IP-100,2013-08-19 11:12:00,
2013-08-19 04:17:00,66.4,55.0,29.10,ESE,112,0.0,0.0,67,0.00,,,0.00,Rainwise IP-100,2013-08-19 11:17:00,
2013-08-19 04:22:00,66.0,54.0,29.10,ESE,112,0.0,0.0,67,0.00,,,0.00,Rainwise IP-100,2013-08-19 11:22:00,
2013-08-19 04:27:00,65.7,54.0,29.10,ESE,112,0.0,0.0,69,0.00,,,0.00,Rainwise IP-100,2013-08-19 11:27:00,
2013-08-19 04:32:00,65.7,54.0,29.10,ESE,112,0.0,0.0,69,0.00,,,0.00,Rainwise IP-100,2013-08-19 11:32:00,
2013-08-19 04:37:00,65.4,54.0,29.09,WNW,292,2.1,3.0,69,0.00,,,0.00,Rainwise IP-100,2013-08-19 11:37:00,
2013-08-19 04:42:00,65.3,54.0,29.09,WNW,292,1.4,2.0,69,0.00,,,0.00,Rainwise IP-100,2013-08-19 11:42:00,
2013-08-19 04:47:00,65.3,54.0,29.09,WNW,292,0.0,2.0,70,0.00,,,0.00,Rainwise IP-100,2013-08-19 11:47:00,
2013-08-19 04:52:00,65.1,54.0,29.10,WNW,292,0.0,0.0,69,0.00,,,0.00,Rainwise IP-100,2013-08-19 11:52:00,
2013-08-19 04:57:00,64.8,54.0,29.10,WNW,292,0.0,0.0,69,0.00,,,0.00,Rainwise IP-100,2013-08-19 11:57:00,
2013-08-19 05:02:00,64.5,54.0,29.10,WNW,292,0.0,0.0,70,0.00,,,0.00,Rainwise IP-100,2013-08-19 12:02:00,
2013-08-19 05:07:00,64.2,54.0,29.10,WNW,292,0.0,0.0,72,0.00,,,0.00,Rainwise IP-100,2013-08-19 12:07:00,
2013-08-19 05:12:00,63.9,55.0,29.10,WNW,292,0.0,0.0,73,0.00,,,0.00,Rainwise IP-100,2013-08-19 12:12:00,
2013-08-19 05:17:00,63.6,55.0,29.10,WNW,292,0.0,0.0,74,0.00,,,0.00,Rainwise IP-100,2013-08-19 12:17:00,
2013-08-19 05:22:00,63.5,55.0,29.11,WNW,292,0.0,1.0,75,0.00,,,0.00,Rainwise IP-100,2013-08-19 12:22:00,
2013-08-19 05:27:00,63.5,55.0,29.11,WNW,292,1.4,1.4,75,0.00,,,0.00,Rainwise IP-100,2013-08-19 12:27:00,
2013-08-19 05:32:00,63.4,55.0,29.11,WNW,292,2.1,2.1,74,0.00,,,0.00,Rainwise IP-100,2013-08-19 12:32:00,
2013-08-19 05:37:00,63.1,54.0,29.11,WNW,292,2.1,2.1,74,0.00,,,0.00,Rainwise IP-100,2013-08-19 12:37:00,
2013-08-19 05:42:00,63.0,55.0,29.11,WNW,292,1.4,2.0,75,0.00,,,0.00,Rainwise IP-100,2013-08-19 12:42:00,
2013-08-19 05:47:00,63.1,55.0,29.11,WNW,292,0.0,1.0,75,0.00,,,0.00,Rainwise IP-100,2013-08-19 12:47:00,
2013-08-19 05:52:00,63.1,55.0,29.11,WNW,292,0.0,1.0,75,0.00,,,0.00,Rainwise IP-100,2013-08-19 12:52:00,
2013-08-19 05:57:00,62.9,55.0,29.11,WNW,292,0.0,0.0,75,0.00,,,0.00,Rainwise IP-100,2013-08-19 12:57:00,
2013-08-19 06:02:00,62.8,54.0,29.12,WNW,292,0.0,1.0,76,0.00,,,0.00,Rainwise IP-100,2013-08-19 13:02:00,
2013-08-19 06:07:00,62.7,54.0,29.12,WNW,292,0.0,0.0,76,0.00,,,0.00,Rainwise IP-100,2013-08-19 13:07:00,
2013-08-19 06:12:00,62.8,54.0,29.12,WNW,292,0.0,0.0,76,0.00,,,0.00,Rainwise IP-100,2013-08-19 13:12:00,
2013-08-19 06:17:00,63.0,56.0,29.12,WNW,292,0.0,0.0,77,0.00,,,0.00,Rainwise IP-100,2013-08-19 13:17:00,
2013-08-19 06:22:00,63.1,56.0,29.12,WNW,292,0.0,1.0,77,0.00,,,0.00,Rainwise IP-100,2013-08-19 13:22:00,
2013-08-19 06:27:00,63.0,55.0,29.12,WNW,292,1.9,2.0,76,0.00,,,0.00,Rainwise IP-100,2013-08-19 13:27:00,
2013-08-19 06:32:00,63.0,55.0,29.12,West,270,1.9,3.0,76,0.00,,,0.00,Rainwise IP-100,2013-08-19 13:32:00,
2013-08-19 06:37:00,63.2,55.0,29.12,West,270,0.0,3.0,75,0.00,,,0.00,Rainwise IP-100,2013-08-19 13:37:00,
2013-08-19 06:42:00,63.7,55.0,29.13,SE,135,1.2,3.0,75,0.00,,,0.00,Rainwise IP-100,2013-08-19 13:42:00,
2013-08-19 06:47:00,64.0,56.0,29.13,SE,135,0.0,1.0,75,0.00,,,0.00,Rainwise IP-100,2013-08-19 13:47:00,
2013-08-19 06:52:00,64.0,56.0,29.13,SE,135,0.0,1.0,75,0.00,,,0.00,Rainwise IP-100,2013-08-19 13:52:00,
2013-08-19 06:57:00,63.8,56.0,29.14,SSE,157,0.0,1.0,76,0.00,,,0.00,Rainwise IP-100,2013-08-19 13:57:00,
2013-08-19 07:02:00,63.8,56.0,29.13,SSE,157,0.0,0.0,76,0.00,,,0.00,Rainwise IP-100,2013-08-19 14:02:00,
2013-08-19 07:07:00,63.7,56.0,29.14,SSE,157,0.0,0.0,76,0.00,,,0.00,Rainwise IP-100,2013-08-19 14:07:00,
2013-08-19 07:12:00,63.7,56.0,29.13,SSE,157,0.0,0.0,76,0.00,,,0.00,Rainwise IP-100,2013-08-19 14:12:00,
2013-08-19 07:17:00,63.8,56.0,29.13,SSE,157,0.0,0.0,76,0.00,,,0.00,Rainwise IP-100,2013-08-19 14:17:00,
2013-08-19 07:22:00,64.0,56.0,29.13,SSE,157,0.0,0.0,75,0.00,,,0.00,Rainwise IP-100,2013-08-19 14:22:00,
2013-08-19 07:27:00,64.4,56.0,29.13,SSE,157,0.0,0.0,74,0.00,,,0.00,Rainwise IP-100,2013-08-19 14:27:00,
2013-08-19 07:32:00,65.0,56.0,29.13,SSE,157,0.0,0.0,73,0.00,,,0.00,Rainwise IP-100,2013-08-19 14:32:00,
2013-08-19 07:37:00,65.6,56.0,29.13,SSW,202,1.2,1.2,72,0.00,,,0.00,Rainwise IP-100,2013-08-19 14:37:00,
2013-08-19 07:42:00,66.0,56.0,29.14,SSW,202,0.0,1.0,71,0.00,,,0.00,Rainwise IP-100,2013-08-19 14:42:00,
2013-08-19 07:47:00,66.6,56.0,29.14,SSW,202,0.0,0.0,70,0.00,,,0.00,Rainwise IP-100,2013-08-19 14:47:00,
2013-08-19 07:52:00,67.2,56.0,29.15,South,180,0.0,3.0,69,0.00,,,0.00,Rainwise IP-100,2013-08-19 14:52:00,
2013-08-19 07:57:00,67.5,57.0,29.15,SSW,202,0.0,2.0,69,0.00,,,0.00,Rainwise IP-100,2013-08-19 14:57:00,
2013-08-19 08:02:00,67.9,57.0,29.14,SSW,202,0.0,0.0,69,0.00,,,0.00,Rainwise IP-100,2013-08-19 15:02:00,
2013-08-19 08:07:00,68.7,57.0,29.15,SSW,202,0.0,0.0,68,0.00,,,0.00,Rainwise IP-100,2013-08-19 15:07:00,
2013-08-19 08:12:00,69.4,57.0,29.15,NNW,337,1.9,2.0,67,0.00,,,0.00,Rainwise IP-100,2013-08-19 15:12:00,
2013-08-19 08:17:00,70.1,57.0,29.15,NNW,337,0.0,2.0,65,0.00,,,0.00,Rainwise IP-100,2013-08-19 15:17:00,
2013-08-19 08:22:00,70.9,57.0,29.15,NNW,337,0.0,2.0,63,0.00,,,0.00,Rainwise IP-100,2013-08-19 15:22:00,
2013-08-19 08:27:00,71.9,57.0,29.15,NNW,337,0.0,1.0,61,0.00,,,0.00,Rainwise IP-100,2013-08-19 15:27:00,
2013-08-19 08:32:00,72.8,57.0,29.15,NNW,337,0.0,0.0,59,0.00,,,0.00,Rainwise IP-100,2013-08-19 15:32:00,
2013-08-19 08:37:00,73.9,58.0,29.15,NNW,337,0.0,0.0,58,0.00,,,0.00,Rainwise IP-100,2013-08-19 15:37:00,
2013-08-19 08:42:00,75.3,58.0,29.14,NNW,337,0.0,0.0,56,0.00,,,0.00,Rainwise IP-100,2013-08-19 15:42:00,
2013-08-19 08:47:00,77.1,59.0,29.15,NNW,337,0.0,0.0,53,0.00,,,0.00,Rainwise IP-100,2013-08-19 15:47:00,
2013-08-19 08:52:00,78.4,58.0,29.15,ESE,112,2.1,2.1,50,0.00,,,0.00,Rainwise IP-100,2013-08-19 15:52:00,
2013-08-19 08:57:00,78.8,57.0,29.15,SSE,157,2.8,2.8,48,0.00,,,0.00,Rainwise IP-100,2013-08-19 15:57:00,
2013-08-19 09:02:00,79.2,57.0,29.15,ESE,112,3.7,3.7,48,0.00,,,0.00,Rainwise IP-100,2013-08-19 16:02:00,
2013-08-19 09:07:00,79.3,57.0,29.15,SSE,157,2.3,4.0,47,0.00,,,0.00,Rainwise IP-100,2013-08-19 16:07:00,
2013-08-19 09:12:00,79.5,57.0,29.15,East,90,4.0,4.0,47,0.00,,,0.00,Rainwise IP-100,2013-08-19 16:12:00,
2013-08-19 09:17:00,79.6,57.0,29.15,SSE,157,1.6,4.0,46,0.00,,,0.00,Rainwise IP-100,2013-08-19 16:17:00,
2013-08-19 09:22:00,79.6,57.0,29.15,East,90,1.2,3.0,46,0.00,,,0.00,Rainwise IP-100,2013-08-19 16:22:00,
2013-08-19 09:27:00,79.7,57.0,29.15,ESE,112,0.0,3.0,46,0.00,,,0.00,Rainwise IP-100,2013-08-19 16:27:00,
2013-08-19 09:32:00,79.9,57.0,29.15,ENE,67,1.9,2.0,46,0.00,,,0.00,Rainwise IP-100,2013-08-19 16:32:00,
2013-08-19 09:37:00,80.6,57.0,29.15,ESE,112,0.0,1.0,45,0.00,,,0.00,Rainwise IP-100,2013-08-19 16:37:00,
2013-08-19 09:42:00,82.0,57.0,29.15,ESE,112,2.3,3.0,44,0.00,,,0.00,Rainwise IP-100,2013-08-19 16:42:00,
2013-08-19 09:47:00,83.5,59.0,29.15,ENE,67,0.0,3.0,43,0.00,,,0.00,Rainwise IP-100,2013-08-19 16:47:00,
2013-08-19 09:52:00,84.0,57.0,29.15,ESE,112,0.0,4.0,41,0.00,,,0.00,Rainwise IP-100,2013-08-19 16:52:00,
2013-08-19 09:57:00,84.3,57.0,29.15,ENE,67,0.0,2.0,40,0.00,,,0.00,Rainwise IP-100,2013-08-19 16:57:00,
2013-08-19 10:02:00,85.2,57.0,29.15,NNE,22,0.0,2.0,39,0.00,,,0.00,Rainwise IP-100,2013-08-19 17:02:00,
2013-08-19 10:07:00,86.4,59.0,29.15,SSE,157,0.0,2.0,39,0.00,,,0.00,Rainwise IP-100,2013-08-19 17:07:00,
2013-08-19 10:12:00,87.5,58.0,29.15,SSE,157,1.4,2.0,37,0.00,,,0.00,Rainwise IP-100,2013-08-19 17:12:00,
2013-08-19 10:17:00,88.5,58.0,29.15,WSW,247,2.6,3.0,36,0.00,,,0.00,Rainwise IP-100,2013-08-19 17:17:00,
2013-08-19 10:22:00,89.0,57.0,29.15,ESE,112,1.2,3.0,35,0.00,,,0.00,Rainwise IP-100,2013-08-19 17:22:00,
2013-08-19 10:27:00,88.5,56.0,29.15,SSE,157,0.0,4.0,34,0.00,,,0.00,Rainwise IP-100,2013-08-19 17:27:00,
2013-08-19 10:32:00,87.7,57.0,29.15,SSE,157,3.3,4.0,35,0.00,,,0.00,Rainwise IP-100,2013-08-19 17:32:00,
2013-08-19 10:37:00,87.2,56.0,29.16,SSE,157,2.8,3.0,35,0.00,,,0.00,Rainwise IP-100,2013-08-19 17:37:00,
2013-08-19 10:42:00,87.1,56.0,29.16,East,90,2.8,3.0,36,0.00,,,0.00,Rainwise IP-100,2013-08-19 17:42:00,
2013-08-19 10:47:00,86.9,56.0,29.16,ENE,67,0.0,4.0,36,0.00,,,0.00,Rainwise IP-100,2013-08-19 17:47:00,
2013-08-19 10:52:00,86.5,56.0,29.16,SSE,157,3.0,3.0,36,0.00,,,0.00,Rainwise IP-100,2013-08-19 17:52:00,
2013-08-19 10:57:00,86.1,56.0,29.16,SSE,157,0.0,4.0,37,0.00,,,0.00,Rainwise IP-100,2013-08-19 17:57:00,
2013-08-19 11:02:00,86.0,57.0,29.16,SSE,157,0.0,3.0,38,0.00,,,0.00,Rainwise IP-100,2013-08-19 18:02:00,
2013-08-19 11:07:00,86.2,57.0,29.16,South,180,2.8,2.8,38,0.00,,,0.00,Rainwise IP-100,2013-08-19 18:07:00,
2013-08-19 11:12:00,86.1,57.0,29.16,ENE,67,1.6,4.0,38,0.00,,,0.00,Rainwise IP-100,2013-08-19 18:12:00,
2013-08-19 11:17:00,86.1,57.0,29.15,East,90,2.8,4.0,38,0.00,,,0.00,Rainwise IP-100,2013-08-19 18:17:00,
2013-08-19 11:22:00,86.4,57.0,29.16,ENE,67,3.7,4.0,37,0.00,,,0.00,Rainwise IP-100,2013-08-19 18:22:00,
2013-08-19 11:27:00,86.5,57.0,29.15,East,90,3.5,4.0,38,0.00,,,0.00,Rainwise IP-100,2013-08-19 18:27:00,
2013-08-19 11:32:00,86.8,58.0,29.15,SSE,157,3.3,4.0,38,0.00,,,0.00,Rainwise IP-100,2013-08-19 18:32:00,
2013-08-19 11:37:00,87.2,59.0,29.15,East,90,1.6,4.0,39,0.00,,,0.00,Rainwise IP-100,2013-08-19 18:37:00,
2013-08-19 11:42:00,86.8,59.0,29.15,ENE,67,1.6,5.0,39,0.00,,,0.00,Rainwise IP-100,2013-08-19 18:42:00,
2013-08-19 11:47:00,86.7,59.0,29.15,ESE,112,0.0,3.0,39,0.00,,,0.00,Rainwise IP-100,2013-08-19 18:47:00,
2013-08-19 11:52:00,87.3,59.0,29.15,SSE,157,0.0,1.0,39,0.00,,,0.00,Rainwise IP-100,2013-08-19 18:52:00,
2013-08-19 11:57:00,87.4,59.0,29.15,ENE,67,0.0,2.0,39,0.00,,,0.00,Rainwise IP-100,2013-08-19 18:57:00,
2013-08-19 12:02:00,87.6,59.0,29.15,SSE,157,0.0,2.0,39,0.00,,,0.00,Rainwise IP-100,2013-08-19 19:02:00,
2013-08-19 12:07:00,88.2,59.0,29.14,SSE,157,4.0,4.0,38,0.00,,,0.00,Rainwise IP-100,2013-08-19 19:07:00,
2013-08-19 12:12:00,88.0,59.0,29.15,SE,135,0.0,4.0,38,0.00,,,0.00,Rainwise IP-100,2013-08-19 19:12:00,
2013-08-19 12:17:00,87.8,59.0,29.15,East,90,2.8,4.0,38,0.00,,,0.00,Rainwise IP-100,2013-08-19 19:17:00,
2013-08-19 12:22:00,87.9,59.0,29.15,East,90,2.6,3.0,38,0.00,,,0.00,Rainwise IP-100,2013-08-19 19:22:00,
2013-08-19 12:27:00,87.9,59.0,29.14,NNE,22,2.3,3.0,37,0.00,,,0.00,Rainwise IP-100,2013-08-19 19:27:00,
2013-08-19 12:32:00,88.3,58.0,29.14,ENE,67,1.2,2.0,36,0.00,,,0.00,Rainwise IP-100,2013-08-19 19:32:00,
2013-08-19 12:37:00,88.9,57.0,29.13,ENE,67,0.0,1.0,35,0.00,,,0.00,Rainwise IP-100,2013-08-19 19:37:00,
2013-08-19 12:42:00,89.8,58.0,29.14,NNW,337,0.0,1.0,35,0.00,,,0.00,Rainwise IP-100,2013-08-19 19:42:00,
2013-08-19 12:47:00,91.2,59.0,29.13,ESE,112,3.0,4.0,34,0.00,,,0.00,Rainwise IP-100,2013-08-19 19:47:00,
2013-08-19 12:52:00,92.5,57.0,29.13,SSW,202,0.0,5.0,31,0.00,,,0.00,Rainwise IP-100,2013-08-19 19:52:00,
2013-08-19 12:57:00,93.3,56.0,29.13,ENE,67,1.9,6.0,29,0.00,,,0.00,Rainwise IP-100,2013-08-19 19:57:00,
2013-08-19 13:02:00,93.5,56.0,29.13,ENE,67,2.1,5.0,29,0.00,,,0.00,Rainwise IP-100,2013-08-19 20:02:00,
2013-08-19 13:07:00,94.6,57.0,29.13,SSW,202,3.3,6.0,29,0.00,,,0.00,Rainwise IP-100,2013-08-19 20:07:00,
2013-08-19 13:12:00,96.3,59.0,29.13,ENE,67,0.0,4.0,29,0.00,,,0.00,Rainwise IP-100,2013-08-19 20:12:00,
2013-08-19 13:17:00,97.4,59.0,29.13,WNW,292,0.0,5.0,28,0.00,,,0.00,Rainwise IP-100,2013-08-19 20:17:00,
2013-08-19 13:22:00,97.9,58.0,29.13,ENE,67,1.4,8.0,27,0.00,,,0.00,Rainwise IP-100,2013-08-19 20:22:00,
2013-08-19 13:27:00,98.4,59.0,29.13,ESE,112,1.4,9.0,27,0.00,,,0.00,Rainwise IP-100,2013-08-19 20:27:00,
2013-08-19 13:32:00,99.1,58.0,29.12,ESE,112,2.6,5.0,26,0.00,,,0.00,Rainwise IP-100,2013-08-19 20:32:00,
2013-08-19 13:37:00,99.2,58.0,29.12,ESE,112,1.9,6.0,26,0.00,,,0.00,Rainwise IP-100,2013-08-19 20:37:00,
2013-08-19 13:42:00,98.7,57.0,29.12,East,90,3.5,5.0,26,0.00,,,0.00,Rainwise IP-100,2013-08-19 20:42:00,
2013-08-19 13:47:00,98.2,58.0,29.12,ESE,112,5.1,6.0,27,0.00,,,0.00,Rainwise IP-100,2013-08-19 20:47:00,
2013-08-19 13:52:00,97.1,57.0,29.12,East,90,6.5,7.0,27,0.00,,,0.00,Rainwise IP-100,2013-08-19 20:52:00,
2013-08-19 13:57:00,95.9,57.0,29.12,ENE,67,5.4,7.0,28,0.00,,,0.00,Rainwise IP-100,2013-08-19 20:57:00,
2013-08-19 14:02:00,95.6,58.0,29.12,ENE,67,1.4,7.0,29,0.00,,,0.00,Rainwise IP-100,2013-08-19 21:02:00,
2013-08-19 14:07:00,95.7,58.0,29.11,ESE,112,2.1,7.0,29,0.00,,,0.00,Rainwise IP-100,2013-08-19 21:07:00,
2013-08-19 14:12:00,95.9,59.0,29.12,SSE,157,2.3,7.0,29,0.00,,,0.00,Rainwise IP-100,2013-08-19 21:12:00,
2013-08-19 14:17:00,96.0,59.0,29.12,ENE,67,4.4,7.0,29,0.00,,,0.00,Rainwise IP-100,2013-08-19 21:17:00,
2013-08-19 14:22:00,96.0,57.0,29.11,ENE,67,4.2,7.0,28,0.00,,,0.00,Rainwise IP-100,2013-08-19 21:22:00,
2013-08-19 14:27:00,96.6,58.0,29.11,East,90,6.3,9.0,28,0.00,,,0.00,Rainwise IP-100,2013-08-19 21:27:00,
2013-08-19 14:32:00,97.1,57.0,29.11,East,90,6.8,9.0,27,0.00,,,0.00,Rainwise IP-100,2013-08-19 21:32:00,
2013-08-19 14:37:00,96.5,56.0,29.11,ESE,112,4.4,8.0,26,0.00,,,0.00,Rainwise IP-100,2013-08-19 21:37:00,
2013-08-19 14:42:00,96.2,56.0,29.11,ENE,67,2.8,6.0,27,0.00,,,0.00,Rainwise IP-100,2013-08-19 21:42:00,
2013-08-19 14:47:00,96.4,57.0,29.11,SSE,157,0.0,6.0,27,0.00,,,0.00,Rainwise IP-100,2013-08-19 21:47:00,
2013-08-19 14:52:00,97.6,58.0,29.11,SSE,157,7.0,8.0,27,0.00,,,0.00,Rainwise IP-100,2013-08-19 21:52:00,
2013-08-19 14:57:00,99.0,57.0,29.11,SSW,202,1.6,10.0,25,0.00,,,0.00,Rainwise IP-100,2013-08-19 21:57:00,
2013-08-19 15:02:00,99.8,55.0,29.11,SSE,157,4.4,10.0,23,0.00,,,0.00,Rainwise IP-100,2013-08-19 22:02:00,
2013-08-19 15:07:00,99.2,54.0,29.10,SSE,157,10.3,10.3,23,0.00,,,0.00,Rainwise IP-100,2013-08-19 22:07:00,
2013-08-19 15:12:00,98.3,55.0,29.10,South,180,4.7,10.0,24,0.00,,,0.00,Rainwise IP-100,2013-08-19 22:12:00,
2013-08-19 15:17:00,98.1,55.0,29.10,SSE,157,4.7,8.0,24,0.00,,,0.00,Rainwise IP-100,2013-08-19 22:17:00,
2013-08-19 15:22:00,97.7,54.0,29.10,SSW,202,1.6,9.0,24,0.00,,,0.00,Rainwise IP-100,2013-08-19 22:22:00,
2013-08-19 15:27:00,98.0,55.0,29.10,SSE,157,5.6,11.0,24,0.00,,,0.00,Rainwise IP-100,2013-08-19 22:27:00,
2013-08-19 15:32:00,98.7,54.0,29.10,SSE,157,4.2,11.0,23,0.00,,,0.00,Rainwise IP-100,2013-08-19 22:32:00,
2013-08-19 15:37:00,98.8,54.0,29.10,SE,135,5.8,12.0,23,0.00,,,0.00,Rainwise IP-100,2013-08-19 22:37:00,
2013-08-19 15:42:00,98.4,54.0,29.10,SSE,157,8.2,12.0,23,0.00,,,0.00,Rainwise IP-100,2013-08-19 22:42:00,
2013-08-19 15:47:00,98.1,54.0,29.09,SSE,157,5.8,11.0,23,0.00,,,0.00,Rainwise IP-100,2013-08-19 22:47:00,
2013-08-19 15:52:00,97.9,54.0,29.09,WSW,247,4.9,11.0,23,0.00,,,0.00,Rainwise IP-100,2013-08-19 22:52:00,
2013-08-19 15:57:00,98.0,54.0,29.09,SE,135,6.5,9.0,23,0.00,,,0.00,Rainwise IP-100,2013-08-19 22:57:00,
2013-08-19 16:02:00,98.3,55.0,29.09,South,180,9.1,12.0,24,0.00,,,0.00,Rainwise IP-100,2013-08-19 23:02:00,
2013-08-19 16:07:00,98.4,55.0,29.09,South,180,4.4,11.0,24,0.00,,,0.00,Rainwise IP-100,2013-08-19 23:07:00,
2013-08-19 16:12:00,98.3,55.0,29.08,SSE,157,4.9,11.0,24,0.00,,,0.00,Rainwise IP-100,2013-08-19 23:12:00,
2013-08-19 16:17:00,98.4,55.0,29.09,ESE,112,3.5,11.0,24,0.00,,,0.00,Rainwise IP-100,2013-08-19 23:17:00,
2013-08-19 16:22:00,99.0,54.0,29.08,SSE,157,7.9,10.0,23,0.00,,,0.00,Rainwise IP-100,2013-08-19 23:22:00,
2013-08-19 16:27:00,99.3,54.0,29.08,SSE,157,6.3,10.0,23,0.00,,,0.00,Rainwise IP-100,2013-08-19 23:27:00,
2013-08-19 16:32:00,99.5,56.0,29.08,SSE,157,2.1,8.0,24,0.00,,,0.00,Rainwise IP-100,2013-08-19 23:32:00,
2013-08-19 16:37:00,99.6,56.0,29.08,SW,225,7.5,10.0,24,0.00,,,0.00,Rainwise IP-100,2013-08-19 23:37:00,
2013-08-19 16:42:00,99.3,56.0,29.08,SSE,157,5.1,10.0,24,0.00,,,0.00,Rainwise IP-100,2013-08-19 23:42:00,
2013-08-19 16:47:00,99.1,56.0,29.08,South,180,7.0,9.0,24,0.00,,,0.00,Rainwise IP-100,2013-08-19 23:47:00,
2013-08-19 16:52:00,99.3,56.0,29.07,SSW,202,5.6,10.0,24,0.00,,,0.00,Rainwise IP-100,2013-08-19 23:52:00,
2013-08-19 16:57:00,99.7,54.0,29.07,SSW,202,2.3,10.0,22,0.00,,,0.00,Rainwise IP-100,2013-08-19 23:57:00,
2013-08-19 17:02:00,100.2,52.0,29.07,SSW,202,5.4,9.0,20,0.00,,,0.00,Rainwise IP-100,2013-08-20 00:02:00,
2013-08-19 17:07:00,100.5,50.0,29.07,SW,225,6.3,10.0,19,0.00,,,0.00,Rainwise IP-100,2013-08-20 00:07:00,
2013-08-19 17:12:00,100.8,49.0,29.06,WNW,292,0.0,10.0,18,0.00,,,0.00,Rainwise IP-100,2013-08-20 00:12:00,
2013-08-19 17:17:00,101.7,50.0,29.06,NNW,337,0.0,4.0,18,0.00,,,0.00,Rainwise IP-100,2013-08-20 00:17:00,
2013-08-19 17:22:00,102.7,53.0,29.06,NNW,337,1.6,4.0,19,0.00,,,0.00,Rainwise IP-100,2013-08-20 00:22:00,
2013-08-19 17:27:00,103.0,54.0,29.06,WNW,292,1.9,9.0,20,0.00,,,0.00,Rainwise IP-100,2013-08-20 00:27:00,
2013-08-19 17:32:00,102.6,54.0,29.06,WNW,292,2.3,4.0,20,0.00,,,0.00,Rainwise IP-100,2013-08-20 00:32:00,
2013-08-19 17:37:00,102.0,53.0,29.06,West,270,1.6,8.0,20,0.00,,,0.00,Rainwise IP-100,2013-08-20 00:37:00,
2013-08-19 17:42:00,101.6,54.0,29.06,WSW,247,0.0,6.0,21,0.00,,,0.00,Rainwise IP-100,2013-08-20 00:42:00,
2013-08-19 17:47:00,101.5,55.0,29.06,North,360,0.0,7.0,22,0.00,,,0.00,Rainwise IP-100,2013-08-20 00:47:00,
2013-08-19 17:52:00,101.2,55.0,29.06,NNW,337,1.9,5.0,22,0.00,,,0.00,Rainwise IP-100,2013-08-20 00:52:00,
2013-08-19 17:57:00,100.9,56.0,29.06,NNW,337,1.4,4.0,23,0.00,,,0.00,Rainwise IP-100,2013-08-20 00:57:00,
2013-08-19 18:02:00,101.1,57.0,29.06,West,270,0.0,3.0,24,0.00,,,0.00,Rainwise IP-100,2013-08-20 01:02:00,
2013-08-19 18:07:00,101.2,56.0,29.06,WNW,292,0.0,2.0,23,0.00,,,0.00,Rainwise IP-100,2013-08-20 01:07:00,
2013-08-19 18:12:00,100.7,56.0,29.06,WSW,247,1.6,4.0,23,0.00,,,0.00,Rainwise IP-100,2013-08-20 01:12:00,
2013-08-19 18:17:00,99.7,56.0,29.06,West,270,0.0,5.0,24,0.00,,,0.00,Rainwise IP-100,2013-08-20 01:17:00,
2013-08-19 18:22:00,99.2,56.0,29.06,SSE,157,2.6,2.6,24,0.00,,,0.00,Rainwise IP-100,2013-08-20 01:22:00,
2013-08-19 18:27:00,98.2,55.0,29.06,SSE,157,2.6,4.0,24,0.00,,,0.00,Rainwise IP-100,2013-08-20 01:27:00,
2013-08-19 18:32:00,96.9,54.0,29.06,ESE,112,0.0,3.0,24,0.00,,,0.00,Rainwise IP-100,2013-08-20 01:32:00,
2013-08-19 18:37:00,96.3,54.0,29.06,SSE,157,1.6,3.0,25,0.00,,,0.00,Rainwise IP-100,2013-08-20 01:37:00,
2013-08-19 18:42:00,95.9,54.0,29.06,SSW,202,2.3,3.0,25,0.00,,,0.00,Rainwise IP-100,2013-08-20 01:42:00,
2013-08-19 18:47:00,95.4,54.0,29.06,West,270,1.2,3.0,25,0.00,,,0.00,Rainwise IP-100,2013-08-20 01:47:00,
2013-08-19 18:52:00,94.8,56.0,29.06,West,270,0.0,2.0,27,0.00,,,0.00,Rainwise IP-100,2013-08-20 01:52:00,
2013-08-19 18:57:00,94.0,56.0,29.05,West,270,0.0,0.0,28,0.00,,,0.00,Rainwise IP-100,2013-08-20 01:57:00,
2013-08-19 19:02:00,93.0,56.0,29.06,West,270,0.0,0.0,29,0.00,,,0.00,Rainwise IP-100,2013-08-20 02:02:00,
2013-08-19 19:07:00,91.9,56.0,29.06,West,270,1.6,1.6,30,0.00,,,0.00,Rainwise IP-100,2013-08-20 02:07:00,
2013-08-19 19:12:00,90.9,56.0,29.06,West,270,2.3,3.0,31,0.00,,,0.00,Rainwise IP-100,2013-08-20 02:12:00,
2013-08-19 19:17:00,89.7,57.0,29.06,West,270,0.0,2.0,33,0.00,,,0.00,Rainwise IP-100,2013-08-20 02:17:00,
2013-08-19 19:22:00,88.8,56.0,29.07,West,270,0.0,0.0,33,0.00,,,0.00,Rainwise IP-100,2013-08-20 02:22:00,
2013-08-19 19:27:00,88.2,56.0,29.07,West,270,1.6,1.6,33,0.00,,,0.00,Rainwise IP-100,2013-08-20 02:27:00,
2013-08-19 19:32:00,87.6,56.0,29.06,West,270,0.0,3.0,35,0.00,,,0.00,Rainwise IP-100,2013-08-20 02:32:00,
2013-08-19 19:37:00,87.0,56.0,29.07,West,270,1.2,3.0,36,0.00,,,0.00,Rainwise IP-100,2013-08-20 02:37:00,
2013-08-19 19:42:00,86.4,56.0,29.07,West,270,0.0,2.0,36,0.00,,,0.00,Rainwise IP-100,2013-08-20 02:42:00,
2013-08-19 19:47:00,85.8,56.0,29.07,West,270,0.0,1.0,37,0.00,,,0.00,Rainwise IP-100,2013-08-20 02:47:00,
2013-08-19 19:52:00,85.2,56.0,29.07,West,270,0.0,1.0,37,0.00,,,0.00,Rainwise IP-100,2013-08-20 02:52:00,
2013-08-19 19:57:00,84.5,56.0,29.07,West,270,1.2,1.2,38,0.00,,,0.00,Rainwise IP-100,2013-08-20 02:57:00,
2013-08-19 20:02:00,83.7,56.0,29.07,West,270,0.0,1.0,39,0.00,,,0.00,Rainwise IP-100,2013-08-20 03:02:00,
2013-08-19 20:07:00,83.0,56.0,29.07,West,270,0.0,2.0,40,0.00,,,0.00,Rainwise IP-100,2013-08-20 03:07:00,
2013-08-19 20:12:00,82.4,56.0,29.06,West,270,0.0,0.0,41,0.00,,,0.00,Rainwise IP-100,2013-08-20 03:12:00,
2013-08-19 20:17:00,81.9,56.0,29.07,West,270,0.0,1.0,41,0.00,,,0.00,Rainwise IP-100,2013-08-20 03:17:00,
2013-08-19 20:22:00,81.1,56.0,29.07,WSW,247,2.3,2.3,43,0.00,,,0.00,Rainwise IP-100,2013-08-20 03:22:00,
2013-08-19 20:27:00,80.2,56.0,29.07,WSW,247,0.0,3.0,44,0.00,,,0.00,Rainwise IP-100,2013-08-20 03:27:00,
2013-08-19 20:32:00,79.9,56.0,29.06,WSW,247,0.0,1.0,45,0.00,,,0.00,Rainwise IP-100,2013-08-20 03:32:00,
2013-08-19 20:37:00,79.8,56.0,29.07,WSW,247,0.0,1.0,45,0.00,,,0.00,Rainwise IP-100,2013-08-20 03:37:00,
2013-08-19 20:42:00,79.6,56.0,29.07,WSW,247,0.0,0.0,45,0.00,,,0.00,Rainwise IP-100,2013-08-20 03:42:00,
2013-08-19 20:47:00,79.1,56.0,29.07,WSW,247,0.0,0.0,45,0.00,,,0.00,Rainwise IP-100,2013-08-20 03:47:00,
2013-08-19 20:52:00,78.6,56.0,29.07,WSW,247,1.4,2.0,45,0.00,,,0.00,Rainwise IP-100,2013-08-20 03:52:00,
2013-08-19 20:57:00,78.1,56.0,29.07,WNW,292,0.0,2.0,46,0.00,,,0.00,Rainwise IP-100,2013-08-20 03:57:00,
2013-08-19 21:01:00,77.8,55.0,29.08,WSW,247,1.4,2.0,46,0.00,,,0.00,Rainwise IP-100,2013-08-20 04:01:00,
2013-08-19 21:06:00,77.4,55.0,29.08,WSW,247,0.0,1.0,46,0.00,,,0.00,Rainwise IP-100,2013-08-20 04:06:00,
2013-08-19 21:11:00,76.9,55.0,29.08,WSW,247,0.0,3.0,47,0.00,,,0.00,Rainwise IP-100,2013-08-20 04:11:00,
2013-08-19 21:16:00,76.5,55.0,29.08,WSW,247,0.0,1.0,48,0.00,,,0.00,Rainwise IP-100,2013-08-20 04:16:00,
2013-08-19 21:21:00,76.4,55.0,29.08,WSW,247,0.0,1.0,48,0.00,,,0.00,Rainwise IP-100,2013-08-20 04:21:00,
2013-08-19 21:26:00,76.2,55.0,29.09,WSW,247,0.0,0.0,48,0.00,,,0.00,Rainwise IP-100,2013-08-20 04:26:00,
2013-08-19 21:31:00,76.0,54.0,29.09,WSW,247,0.0,1.0,48,0.00,,,0.00,Rainwise IP-100,2013-08-20 04:31:00,
2013-08-19 21:36:00,75.8,55.0,29.09,WSW,247,0.0,0.0,49,0.00,,,0.00,Rainwise IP-100,2013-08-20 04:36:00,
2013-08-19 21:41:00,75.6,55.0,29.09,WSW,247,0.0,0.0,49,0.00,,,0.00,Rainwise IP-100,2013-08-20 04:41:00,
2013-08-19 21:46:00,75.4,55.0,29.09,WSW,247,0.0,0.0,49,0.00,,,0.00,Rainwise IP-100,2013-08-20 04:46:00,
2013-08-19 21:51:00,75.1,55.0,29.10,WSW,247,1.6,1.6,50,0.00,,,0.00,Rainwise IP-100,2013-08-20 04:51:00,
2013-08-19 21:56:00,74.7,55.0,29.10,WSW,247,2.3,3.0,50,0.00,,,0.00,Rainwise IP-100,2013-08-20 04:56:00,
2013-08-19 22:01:00,74.3,54.0,29.09,WSW,247,1.4,3.0,50,0.00,,,0.00,Rainwise IP-100,2013-08-20 05:01:00,
2013-08-19 22:06:00,74.2,55.0,29.09,WSW,247,2.3,2.3,51,0.00,,,0.00,Rainwise IP-100,2013-08-20 05:06:00,
2013-08-19 22:11:00,74.3,55.0,29.10,WSW,247,2.6,4.0,51,0.00,,,0.00,Rainwise IP-100,2013-08-20 05:11:00,
2013-08-19 22:16:00,74.4,55.0,29.09,WSW,247,0.0,2.0,51,0.00,,,0.00,Rainwise IP-100,2013-08-20 05:16:00,
2013-08-19 22:21:00,74.7,55.0,29.10,WSW,247,0.0,0.0,51,0.00,,,0.00,Rainwise IP-100,2013-08-20 05:21:00,
2013-08-19 22:26:00,75.0,56.0,29.09,WSW,247,0.0,0.0,51,0.00,,,0.00,Rainwise IP-100,2013-08-20 05:26:00,
2013-08-19 22:31:00,75.0,55.0,29.10,WSW,247,0.0,0.0,50,0.00,,,0.00,Rainwise IP-100,2013-08-20 05:31:00,
2013-08-19 22:36:00,74.7,55.0,29.09,WSW,247,0.0,0.0,50,0.00,,,0.00,Rainwise IP-100,2013-08-20 05:36:00,
2013-08-19 22:41:00,74.4,54.0,29.09,WSW,247,2.6,3.0,50,0.00,,,0.00,Rainwise IP-100,2013-08-20 05:41:00,
2013-08-19 22:46:00,74.1,54.0,29.09,WSW,247,1.9,3.0,51,0.00,,,0.00,Rainwise IP-100,2013-08-20 05:46:00,
2013-08-19 22:51:00,74.0,55.0,29.08,WSW,247,0.0,2.0,52,0.00,,,0.00,Rainwise IP-100,2013-08-20 05:51:00,
2013-08-19 22:56:00,74.2,56.0,29.09,NNW,337,0.0,0.0,52,0.00,,,0.00,Rainwise IP-100,2013-08-20 05:56:00,
2013-08-19 23:01:00,74.1,54.0,29.09,NNW,337,0.0,0.0,51,0.00,,,0.00,Rainwise IP-100,2013-08-20 06:01:00,
2013-08-19 23:06:00,73.7,55.0,29.08,South,180,0.0,3.0,52,0.00,,,0.00,Rainwise IP-100,2013-08-20 06:06:00,
2013-08-19 23:11:00,73.5,56.0,29.08,South,180,0.0,1.0,54,0.00,,,0.00,Rainwise IP-100,2013-08-20 06:11:00,
2013-08-19 23:16:00,73.4,56.0,29.09,South,180,0.0,0.0,54,0.00,,,0.00,Rainwise IP-100,2013-08-20 06:16:00,
2013-08-19 23:21:00,73.1,56.0,29.09,South,180,0.0,0.0,55,0.00,,,0.00,Rainwise IP-100,2013-08-20 06:21:00,
2013-08-19 23:26:00,72.7,56.0,29.08,South,180,0.0,0.0,56,0.00,,,0.00,Rainwise IP-100,2013-08-20 06:26:00,
2013-08-19 23:31:00,72.4,55.0,29.08,South,180,0.0,0.0,55,0.00,,,0.00,Rainwise IP-100,2013-08-20 06:31:00,
2013-08-19 23:36:00,72.1,54.0,29.09,South,180,0.0,0.0,54,0.00,,,0.00,Rainwise IP-100,2013-08-20 06:36:00,
2013-08-19 23:41:00,71.9,54.0,29.09,South,180,0.0,0.0,55,0.00,,,0.00,Rainwise IP-100,2013-08-20 06:41:00,
2013-08-19 23:46:00,71.6,55.0,29.09,South,180,0.0,0.0,56,0.00,,,0.00,Rainwise IP-100,2013-08-20 06:46:00,
2013-08-19 23:51:00,71.4,55.0,29.09,South,180,0.0,0.0,57,0.00,,,0.00,Rainwise IP-100,2013-08-20 06:51:00,
2013-08-19 23:56:00,71.2,56.0,29.09,South,180,0.0,0.0,58,0.00,,,0.00,Rainwise IP-100,2013-08-20 06:56:00,